Location: Carnières
(50.1682°N, 3.3474°E)
Time: 05:33:04
(UTC+00:00)

MOZ.5/SAFIR/RUBIN 5/SL-8 - Pass Details

Date: 13 August 2024
Orbit: 671 x 698 km, 98.3° (Epoch: 08 September)

Event Time Altitude Azimuth Distance (km) Brightness Sun altitude
Exits shadow 23:39:24 11° 90° (E) 2,092 6.2 -25.5°
Maximum altitude 23:41:59 16° 56° (NE) 1,780 6.2 -25.5°
Drops below altitude 10° 23:44:50 10° 18° (NNE) 2,170 7.2 -25.5°
Sets 23:47:52 0° 358° (N) 3,095 8.5 -25.6°
